TimeMDT,TemperatureF,Dew PointF,Humidity,Sea Level PressureIn,VisibilityMPH,Wind Direction,Wind SpeedMPH,Gust SpeedMPH,PrecipitationIn,Events,Conditions,WindDirDegrees,DateUTC
12:53 AM,42.1,34.0,73,30.04,10.0,East,4.6,-,N/A,,Clear,80,2012-09-04 06:53:00
1:53 AM,39.0,33.1,79,30.05,10.0,ENE,4.6,-,N/A,,Clear,60,2012-09-04 07:53:00
2:53 AM,36.0,32.0,86,30.06,10.0,Calm,Calm,-,N/A,,Clear,0,2012-09-04 08:53:00
3:53 AM,37.0,32.0,82,30.04,10.0,Calm,Calm,-,N/A,,Clear,0,2012-09-04 09:53:00
4:53 AM,36.0,30.9,82,30.07,10.0,Calm,Calm,-,N/A,,Clear,0,2012-09-04 10:53:00
5:53 AM,39.0,32.0,76,30.06,10.0,Calm,Calm,-,N/A,,Clear,0,2012-09-04 11:53:00
6:53 AM,35.1,30.9,85,30.12,10.0,Calm,Calm,-,N/A,,Clear,0,2012-09-04 12:53:00
7:53 AM,45.0,34.0,65,30.09,10.0,East,3.5,-,N/A,,Mostly Cloudy,80,2012-09-04 13:53:00
8:53 AM,53.1,34.0,48,30.05,10.0,NE,4.6,-,N/A,,Partly Cloudy,40,2012-09-04 14:53:00
9:53 AM,60.1,27.0,28,30.02,10.0,NNW,13.8,21.9,N/A,,Clear,340,2012-09-04 15:53:00
10:53 AM,63.0,24.1,23,30.02,10.0,NW,11.5,23.0,N/A,,Partly Cloudy,320,2012-09-04 16:53:00
11:53 AM,64.0,24.1,22,30.02,10.0,WNW,13.8,23.0,N/A,,Partly Cloudy,300,2012-09-04 17:53:00
12:53 PM,64.9,21.0,19,29.99,10.0,WNW,13.8,21.9,N/A,,Partly Cloudy,290,2012-09-04 18:53:00
1:53 PM,66.0,24.1,20,29.99,10.0,West,12.7,20.7,N/A,,Clear,280,2012-09-04 19:53:00
2:53 PM,66.0,24.1,20,30.00,10.0,West,8.1,20.7,N/A,,Scattered Clouds,280,2012-09-04 20:53:00
3:53 PM,66.0,23.0,20,29.98,10.0,WNW,19.6,28.8,N/A,,Clear,290,2012-09-04 21:53:00
4:53 PM,64.0,23.0,21,30.00,10.0,WNW,12.7,19.6,N/A,,Overcast,290,2012-09-04 22:53:00
5:53 PM,64.9,21.9,19,29.98,10.0,West,11.5,19.6,N/A,,Clear,260,2012-09-04 23:53:00
6:53 PM,62.1,21.0,21,30.01,10.0,NW,6.9,-,N/A,,Partly Cloudy,310,2012-09-05 00:53:00
7:53 PM,57.0,21.0,25,30.01,10.0,NNW,3.5,-,N/A,,Partly Cloudy,330,2012-09-05 01:53:00
8:53 PM,53.1,18.0,25,30.00,10.0,Calm,Calm,-,N/A,,Clear,0,2012-09-05 02:53:00
9:53 PM,48.0,19.0,32,30.00,10.0,NE,4.6,-,N/A,,Clear,40,2012-09-05 03:53:00
10:53 PM,45.0,19.9,37,30.00,10.0,NE,3.5,-,N/A,,Clear,50,2012-09-05 04:53:00
11:53 PM,42.1,23.0,47,30.01,10.0,North,3.5,-,N/A,,Clear,350,2012-09-05 05:53:00